Location: Cheching
(60.0667°N, 164.2167°W)
Time: 23:56:17
(UTC+00:00)

O/OREOS (USA 219) - Pass Details

Date: 26 January 2021
Orbit: 621 x 646 km, 72.0° (Epoch: 22 May)

Event Time Altitude Azimuth Distance (km) Brightness Sun altitude
Rises 17:45:08 0° 213° (SSW) 2,954 ? -11.7°
Reaches altitude 10° 17:47:24 10° 213° (SSW) 2,047 ? -11.4°
Maximum altitude 17:52:01 84° 124° (SE) 657 ? -10.8°
Drops below altitude 10° 17:56:38 10° 38° (NE) 2,050 ? -10.3°
Sets 17:58:55 0° 38° (NE) 2,960 ? -10.0°
